FENGYUN 1C DEB, 31720

Orbit data source: Space-Track

FENGYUN 1C DEB, 31720 is space debris in SSO originally from a launch on Mon, 10 May 1999 UTC launched from the Taiyaun Space Center, China (TSC). Fengyun 1C debris stems from the Chinese weather satellite Fengyun-1C, which was intentionally destroyed by a Chinese anti-satellite missile in 2007. This event dramatically increased the amount of space debris, with thousands of trackable fragments posing hazards to satellites and human spaceflight. The Fengyun 1C debris cloud has become a focal point in discussions about space sustainability and the need for international regulations to prevent the creation of new debris.

Loading next visibility...
Identifier
31720, 1999-025CDT
Orbit
SSO
Country
Flag of CNCN / PRC
Related business
Manufacturer
Unknown
Mission
Spacecraft
Bus & Motor
Unknown
Mass
Unknown
Launch date (UTC)
1999-05-10 (27 years ago)
Launch vehicle
Unknown
Launch site
Taiyaun Space Center, China (TSC)
Object type
Payload
Rocket body
Debris
Shape & HBR
Unknown shape, 0.1 m
Radar Cross Section
Small (<0.1 m²)

Expand to show TLE details & history
Last TLE update: 1 week ago

TLE from 1 week ago
0 FENGYUN 1C DEB
1 31720U 99025CDT 26151.75414158  .00007631  00000-0  10867-2 0  9999
2 31720  99.0529  88.0209 0094635 316.7549  42.6253 14.74104684  7231
Epoch: 2026-05-31T18:05Z
TLE epoch observation values (Epoch: 2026-05-31T18:05:57.832Z)
Latitude
-0.00003°
Longitude
-72.72134°
Altitude
602.329 km
Speed
7.585 km/s
True Right ascension
05h 52m 05s
True Declination
0° 00' 00"
Sunlit
Object was in daylight at epoch
Visualization orbit readout
Latitude
Unknown
Longitude
Unknown
Altitude
Unknown
Speed
Unknown
Apparent Right ascension
Unknown
Apparent Declination
Unknown
Sunlit
N/A
Visualization observer readout
Local Sidereal Time
09:35:44
Azimuth
Unknown
Elevation
Unknown
Doppler factor
Unknown
Orbital elements
Apogee altitude
711.563 km
Perigee altitude
578.634 km
Semi-major axis
7,023.235 km
Eccentricity
0.00946
Inclination
99.0529°
RAAN
88.0209°
Arg. of periapsis
316.7549°
True anomaly
43.36611°
Mean anomaly
42.6253°
Eccentric anomaly
42.99506°
Mean motion
3.68755 °/min
Orbital period
97.63 mins
BSTAR
0.0010867
Loading maneuver chart data...
Computing Atmospheric mass density...
Loading historical data...
Loading historical data...
Loading historical data...
Loading historical data...
Loading historical data...
Loading historical data...
Loading historical data...

Documentation

Showing up to 5 results
|